Regional Weather Roundup
Issued by NWS San Diego, CA

Home | Current Version | Previous Version | Text Only | Print | Product List | Glossary On
Versions: 1 2 3 4 5 6 7 8 9 10 11 12 13 14 15 16 17 18 19 20 21 22 23 24 25 26 27 28 29 30 31 32 33 34 35 36 37 38 39 40 41 42 43 44 45 46 47 48 49 50
000
ASUS46 KSGX 271110
RWRSGX

SAN DIEGO HOURLY WEATHER ROUNDUP
NATIONAL WEATHER SERVICE SAN DIEGO CA
300 AM PST SAT DEC 27 2014

NOTE: "FAIR" INDICATES FEW OR NO CLOUDS BELOW 12,000 FEET WITH NO
SIGNIFICANT WEATHER AND/OR OBSTRUCTIONS TO VISIBILITY.

CAZ042-043-060-061-PZZ750-775-271200-

GREATER SAN DIEGO AREA

CITY           SKY/WX    TMP DP  RH WIND       PRES   REMARKS
LINDBERGH FLD  CLEAR     47  25  42 CALM      30.22R
POINT LOMA       N/A     47  20  34 NE9         N/A
NATIONAL CITY    N/A     41  28  59 N2        30.21S
CHULA VISTA      N/A     38  30  71 CALM      30.15R
IMPERIAL BEACH CLEAR     41  26  55 E6        30.21R
BROWN FIELD    CLEAR     48  14  25 S3        30.20R
MIRAMAR MCAS   CLEAR     39  23  52 CALM      30.20R
MONTGOMERY FLD CLEAR     48  17  29 NE5       30.20S

$$

NORTH SAN DIEGO COUNTY

CITY           SKY/WX    TMP DP  RH WIND       PRES   REMARKS
CAMP PENDLETON CLEAR     45  18  34 NW3       30.22R
OCEANSIDE AP   CLEAR     39  24  55 NE7       30.21S WCI  34
OCEANSIDE HBR    N/A     41  26  56 E3        30.24R
VISTA            N/A     40  24  52 CALM      30.21R
CARLSBAD       CLEAR     45  18  34 CALM      30.20S
DEL MAR          N/A     47  23  38 CALM      30.23S
LA JOLLA SCRIP   N/A     51  21  30 CALM      30.18S
FALLBROOK        N/A     47  20  33 SE9       30.23S
ESCONDIDO        N/A     40  24  54 CALM      30.24R
SAN MARCOS       N/A     41  23  49 CALM      30.20S
POWAY            N/A     51  17  25 NE8       30.24R

$$

EAST SAN DIEGO COUNTY

CITY           SKY/WX    TMP DP  RH WIND       PRES   REMARKS
RAMONA         CLEAR     45  13  27 NE10      30.19S
LA MESA          N/A     42  24  48 CALM      30.16R
JAMUL            N/A     41  20  42 CALM      30.21S
DESCANSO N       N/A     39  12  32 E20       30.13F WCI  30
MT. LAGUNA OBS   N/A     25   5  42 NE18      29.71R WCI  11
CAMPO            N/A     38  10  31 NE14G20   30.15S WCI  30

$$

ORANGE COUNTY AND THE LOS ANGELES BASIN

CITY           SKY/WX    TMP DP  RH WIND       PRES   REMARKS
JOHN WAYNE AP  CLEAR     56  12  17 NE9       30.22R
LAGUNA BEACH     N/A     44  23  44 N6        30.18R
LAKE FOREST FR   N/A     50  11  20 E7        30.10R
SANTA ANA        N/A     55  20  26 NE3       30.18R
HUNTINGTON BCH   N/A     54  20  26 NE6       30.24R
FULLERTON      CLEAR     53  14  21 E16G22    30.22R
LONG BEACH     CLEAR     51  18  27 NE10      30.23R
L.A. AP        CLEAR     47  20  34 N7        30.24R
L.A. DOWNTOWN  CLEAR     42  27  55 CALM      30.23R

$$

THE INLAND EMPIRE

CITY           SKY/WX    TMP DP  RH WIND       PRES   REMARKS
CORONA         CLEAR     46  16  30 CALM      30.25R
CHINO          CLEAR     51  15  23 E10G31    30.23R
ONTARIO        CLEAR     50  11  20 NE24G43   30.20R
RIVERSIDE AP   CLEAR     50  12  21 NE15G28   30.22S
RIV CYN CREST    N/A     49  26  42 NE7         N/A
MORENO VALLEY    N/A     43  24  46 CALM      29.42S
HORSETHIEF CYN   N/A     40  13  32 W5        30.25R
PERRIS           N/A     44  22  41 E3        30.23S
MENIFEE          N/A     37  25  63 SE1       30.29S
HEMET EAST       N/A     36  13  38 CALM      30.28R
FRENCH VALLEY  FAIR      36  21  55 CALM      30.22S
TEMECULA         N/A     40  26  55 N2        30.20R

$$

SAN BERNARDINO AND RIVERSIDE COUNTY MOUNTAINS

CITY           SKY/WX    TMP DP  RH WIND       PRES   REMARKS
BIG BEAR AP    CLEAR     18   9  68 E5        30.19R WCI  11
ANGELUS OAKS     N/A     26   8  44 N2        30.25F
PINE COVE        N/A     24   8  51 CALM      30.29R

$$

SOUTHERN DESERT INCLUDING THE COACHELLA VALLEY

CITY           SKY/WX    TMP DP  RH WIND       PRES   REMARKS
PALM SPRINGS   CLEAR     50  12  21 CALM      30.31R
THOUSAND PALMS   N/A     47  13  25 NW6       30.26R
PALM DESERT      N/A     43  21  41 CALM        N/A
THERMAL        CLEAR     47  13  25 VRB5      30.28R
BLYTHE         CLEAR     46  16  30 N14       30.24R
IMPERIAL AP    CLEAR     39  21  48 NW8       30.25R WCI  33
EL CENTRO NAS  CLEAR     39  18  42 NW9       30.26R WCI  33
YUMA AZ        CLEAR     44  13  28 NE6       30.22R

$$

UPPER DESERT

CITY           SKY/WX    TMP DP  RH WIND       PRES   REMARKS
VICTORVILLE AP   N/A     28  14  54 CALM      30.31R
HESPERIA         N/A     31  17  56 CALM      30.53R
PALMDALE       CLEAR     28  18  66 E6        30.31R WCI  22
LANCASTER      CLEAR     24  19  81 N5        30.32R WCI  18
DAGGETT        CLEAR     33  13  43 CALM      30.33R
29 PALMS N     CLEAR     37  12  35 NW8       30.36R WCI  31
NEEDLES        CLEAR     44  12  27 N12       30.27R

$$

REGIONAL REPORTS

CITY           SKY/WX    TMP DP  RH WIND       PRES   REMARKS
SANTA BARBARA  CLEAR     39  33  79 CALM      30.23R
SANDBERG       CLEAR     31  11  43 NE17G26   30.22S WCI  19
MT. WILSON       N/A     34   0  23 N5G10       N/A  WCI  30
LAS VEGAS NV   CLEAR     41   9  26 NW16      30.27R
PHOENIX AZ     CLEAR     39  25  57 SE3       30.14R
TIJUANA        CLEAR     46  10  23 CALM      30.22R
ENSENADA NW      N/A     52  32  45 E17       30.17R

$$

OFFSHORE ISLANDS

CITY           SKY/WX    TMP DP  RH WIND       PRES   REMARKS
CATALINA ARPT  CLEAR     49  19  30 E16       30.21R
SAN NICOLAS IS CLEAR    N/A N/A N/A E12       30.22R

$$

MARINE AND OFFSHORE BUOY REPORTS

STATION/POSITION SKY/WX   TEMP    WIND        PRES    SWELL
                          AIR SEA DIR/SP/G            HT/PER/DIR
                          (F)     (DEG/KT/KT) (MB)    (FT/S/D)
TANNER BANKS               61 63   50/  6/ 10 1022.5R   7/310/11
S CLEMENTE BASIN           60 64   90/ 12/ 16 1022.2R   3/310/13
SAN NICOLAS IS.               62                N/A     3/300/13
SO. S. ROSA ISLA           59 59   70/ 16/ 19 1022.6R   5/13
W. S. BARBARA CH           59 61  120/ 12/ 16 1023.3R   7/300/10
S. MONICA BASIN            58 63   40/ 14/ 16 1023.5R   2/290/10
S PEDRO CHANNEL               63                N/A     2/260/14
DANA POINT                    63                N/A     2/260/13
CMP PENDLETON NS              63                N/A     2/250/11
OCEANSIDE OFFSHR              64                N/A     2/270/11
TORREY PINES OTR              64                N/A     2/270/13
LA JOLLA 1                 54 63   70/  5/  7 1022.8F
MISSION BAY BUOY              63                N/A     2/280/13
SAN DIEGO BAY                 63              1023.4F
POINT LOMA SOUTH              64                N/A     2/250/14

$$



USA.gov is the U.S. government's official web portal to all federal, state and local government web resources and services.